CAPE
627 963 1470 1457 840 651 424 109 169 653 902 953 921 1055 963 908 745 378 71 9 6 72 15 164 277 81 28 5 4 394 283 150 95 51 66 230 233 24 65 61 10 1 0
707 1027 1350 1543 1280 943 362 505 372 614 745 904 1434 976 1033 1012 619 267 36 14 5 12 64 206 156 15 10 9 221 308 89 1 0 0 0 0 20 3 0 17 92 46 253
920 1052 1056 1531 1479 1278 349 547 239 418 561 1003 1088 1014 1033 834 599 124 31 17 5 11 106 59 7 11 85 97 129 96 16 0 0 0 0 0 0 3 0 0 1 28 150
1048 1076 981 1343 1326 1165 311 526 460 294 292 587 945 1150 874 966 366 77 10 11 38 197 75 108 7 93 157 115 109 47 0 0 0 0 0 0 0 1 3 3 4 0 7
1086 1058 972 1238 1281 1112 385 727 581 88 47 418 572 989 876 818 247 7 11 134 308 251 141 15 106 264 296 373 63 24 0 0 0 0 0 0 0 0 0 1 2 2 1
1032 1049 1099 1199 1226 875 552 733 669 19 0 30 448 536 684 710 179 8 26 181 199 125 79 69 112 164 395 140 58 18 0 0 0 0 0 0 0 0 0 0 1 2 3
1001 1054 937 1218 1125 804 625 823 724 36 0 0 84 373 524 119 17 4 7 57 83 75 89 47 58 58 59 90 71 12 0 0 0 0 0 0 0 0 0 0 0 0 1
935 978 841 783 1012 722 572 803 599 27 0 6 71 167 148 10 10 5 3 4 50 68 63 45 32 33 33 29 40 13 0 0 0 0 0 0 0 0 0 0 0 0 0
948 782 668 732 597 421 590 691 647 217 40 42 19 74 19 25 8 3 4 6 67 68 66 54 21 14 8 8 2 0 0 0 0 0 0 0 0 0 0 0 0 0 0
833 694 691 460 202 126 391 385 539 292 44 63 27 27 18 4 3 10 2 99 80 66 53 34 15 0 0 0 0 0 0 0 0 0 0 0 0 0 0 0 0 0 0
629 459 427 154 52 58 323 370 391 264 34 0 0 0 4 11 6 1 1 56 100 60 38 23 6 0 0 0 0 0 0 0 0 0 0 0 0 0 0 0 0 0 0
107 446 378 107 7 8 132 391 568 505 151 0 0 0 0 0 3 1 0 13 63 49 25 5 0 0 0 0 0 0 0 0 0 0 0 0 0 0 0 0 0 0 0
404 223 180 8 0 16 56 72 204 485 476 53 0 0 0 0 10 10 22 39 44 8 0 0 0 0 0 0 0 0 0 0 0 0 0 0 0 0 0 0 0 0 0
615 290 121 18 4 16 34 10 50 133 417 99 24 2 0 0 0 0 0 2 0 0 0 0 0 0 0 0 0 0 0 0 0 0 0 0 0 0 1 0 4 124 63
568 232 127 114 62 50 66 31 56 104 138 277 62 18 0 0 8 4 0 0 0 0 0 0 0 0 0 0 0 0 0 0 0 0 0 0 0 0 0 12 20 33 120
226 390 230 140 100 27 123 120 113 73 76 133 99 54 9 0 10 7 20 22 8 0 0 0 0 0 0 0 0 0 0 0 0 0 0 0 0 0 0 14 21 35 82
296 305 437 239 187 124 71 144 158 125 61 60 97 111 67 20 31 38 36 35 29 0 0 0 0 0 0 0 0 0 0 0 0 0 0 2 0 0 0 0 36 43 99
233 181 171 288 290 220 221 186 93 50 68 99 97 114 76 57 47 35 31 28 22 4 0 0 0 0 0 0 0 0 2 1 16 11 1 5 3 0 0 0 3 36 98
101 93 33 80 176 248 285 243 190 73 8 0 17 43 38 79 35 16 7 10 0 0 0 0 0 0 0 0 0 13 37 4 26 14 24 3 0 0 0 0 0 0 12
56 101 80 158 214 228 287 341 310 263 184 165 33 0 0 8 10 0 0 0 0 0 0 0 0 0 0 19 37 45 129 140 118 81 0 0 0 0 0 0 0 0 0
96 47 134 400 288 359 436 383 177 275 260 282 196 148 95 23 1 0 0 0 0 0 0 0 0 3 16 38 208 179 75 51 35 3 0 0 0 0 0 0 0 0 0
178 150 387 457 353 410 399 296 268 225 307 374 331 202 151 113 53 15 0 0 0 0 0 36 106 230 252 187 238 230 20 2 0 0 0 0 0 0 0 0 0 0 0
202 204 257 201 363 489 263 214 156 160 125 127 140 203 219 94 33 11 36 48 30 6 40 74 130 203 241 220 134 115 57 17 0 0 0 0 0 0 0 0 0 0 0
191 353 381 162 213 299 202 276 249 129 144 145 62 57 123 38 19 52 43 29 26 4 4 6 6 69 125 165 11 0 4 51 101 8 0 0 0 0 0 0 0 0 0
0 5 135 85 153 258 238 332 179 185 168 161 101 112 113 29 44 26 53 33 1 0 0 6 0 10 26 51 25 2 0 0 1 1 1 0 0 0 0 0 0 0 0
0 0 0 86 226 215 199 206 235 267 142 70 39 60 44 2 1 3 3 10 10 0 0 0 0 0 0 0 0 0 0 0 0 0 3 1 0 0 0 0 0 0 0
CIN
-128 -39 -7 0 -17 -55 -94 -254 -192 -69 -28 -15 -5 0 0 0 -2 -36 -123 -90 -19 -171 0 -88 -69 -165 -35 0 0 -49 -85 -141 -180 -248 -227 -112 -105 -30 -171 -260 0 0 0
-97 -36 -4 0 0 -16 -101 -70 -99 -62 -38 -13 0 0 0 0 -4 -68 -47 -78 0 0 -43 -102 -120 0 0 0 -95 -76 -196 0 0 0 0 0 -23 0 0 -6 -180 -108 -50
-51 -21 -11 0 0 0 -90 -58 -140 -76 -43 -4 0 0 0 -1 -8 -115 -50 -26 0 0 -130 -108 0 0 -185 -165 -138 -152 -41 0 0 0 0 0 0 0 0 0 -1 0 -90
-26 -12 -7 0 0 0 -89 -54 -73 -98 -78 -30 -1 0 0 0 -33 -184 0 0 -28 -104 -127 -138 0 -157 -101 -141 -160 -37 0 0 0 0 0 0 0 0 0 0 0 0 -2
-19 -3 -1 0 0 0 -62 -24 -35 -179 -219 -43 -14 -3 -1 0 -67 0 0 -131 -75 -87 -127 -5 -153 -59 -44 -22 -30 -74 0 0 0 0 0 0 0 0 0 0 0 0 0
-13 0 0 0 0 0 -27 -12 -15 -236 0 -207 -21 -12 -3 -4 -89 0 -11 -124 -121 -164 -35 -43 -137 -85 -18 -98 -31 -70 0 0 0 0 0 0 0 0 0 0 0 0 0
-7 0 0 0 0 0 -8 -2 -7 -180 0 0 -91 -13 -1 -88 -39 -1 0 -61 -49 -49 -40 -58 -56 -53 -51 -105 -29 -91 0 0 0 0 0 0 0 0 0 0 0 0 0
-5 -4 -1 -6 0 0 -3 0 -6 -8 0 0 -98 -57 -60 0 -1 0 -2 0 -80 -73 -73 -87 -102 -106 -112 -115 -83 -94 0 0 0 0 0 0 0 0 0 0 0 0 0
0 -1 0 -1 -1 -9 -1 -1 -1 -37 -114 -143 0 -97 -1 -2 0 -1 0 0 -89 -85 -85 -101 -145 -164 -166 -165 -36 0 0 0 0 0 0 0 0 0 0 0 0 0 0
0 0 0 0 -15 -29 0 -6 -3 -12 -91 -104 -4 -14 -10 -4 0 0 0 -65 -75 -84 -98 -127 -160 0 0 0 0 0 0 0 0 0 0 0 0 0 0 0 0 0 0
0 -2 0 -6 -34 -36 0 -2 -4 -13 -78 0 0 0 -15 0 0 0 -5 -105 -71 -98 -119 -148 -117 0 0 0 0 0 0 0 0 0 0 0 0 0 0 0 0 0 0
-21 0 -4 -27 -57 -56 -13 0 0 0 -15 0 0 0 0 0 0 0 0 -73 -92 -117 -147 -65 0 0 0 0 0 0 0 0 0 0 0 0 0 0 0 0 0 0 0
-7 -8 -16 -100 0 -67 -45 -50 -34 -3 0 -66 0 0 0 0 -129 -134 -139 -124 -122 -144 0 0 0 0 0 0 0 0 0 0 0 0 0 0 0 0 0 0 0 0 0
-3 -27 -37 -107 -82 -100 -74 -32 -83 -75 -26 -87 -109 -27 -5 0 0 0 0 -83 0 0 0 0 0 0 0 0 0 0 0 0 0 0 0 0 0 0 -12 -2 -14 -62 -22
-18 -73 -76 -106 -165 -187 -135 -129 -80 -54 -61 -26 -96 -169 0 0 -207 -126 0 0 0 0 0 0 0 0 0 0 0 0 0 0 0 0 0 0 0 0 0 -32 -20 -55 -34
-22 -56 -57 -86 -137 -209 -275 -207 -137 -116 -84 -73 -94 -157 -149 0 -215 -139 -184 -188 -145 0 0 0 0 0 0 0 0 0 0 0 0 0 0 0 0 0 -25 -74 -39 -95 -48
-41 -70 -53 -88 -61 -148 -251 -339 -288 -208 -185 -160 -152 -137 -199 -256 -216 -189 -176 -175 -171 0 0 0 0 0 0 0 0 0 0 0 0 0 0 -31 0 0 0 -7 -58 -86 -61
-28 -75 -153 -101 -100 -94 -154 -194 -429 -404 -244 -174 -207 -210 -233 -228 -213 -216 -210 -212 -193 -248 0 0 0 0 0 0 0 0 -12 -5 -58 -32 -37 -57 -26 0 0 0 -80 -63 -57
-128 -100 -173 -120 -112 -102 -128 -127 -197 -367 -406 0 -128 -248 -274 -207 -226 -238 -268 -242 0 0 0 0 0 0 0 0 0 -110 -76 -44 -74 -39 -22 -16 0 0 0 0 0 0 -41
-154 -130 -106 -122 -126 -104 -70 -91 -122 -152 -196 -197 -182 0 0 -163 -249 0 -51 0 0 0 0 0 0 0 0 -92 -81 -93 -32 -22 -19 -24 0 0 0 0 0 0 0 0 0
-104 -155 -106 -78 -90 -76 -76 -128 -70 -77 -101 -103 -103 -66 -94 -203 -65 0 0 0 0 0 0 0 0 -155 -138 -109 -30 -15 -20 -29 -39 -63 0 0 0 0 0 0 0 0 0
-55 -86 -61 -56 -75 -66 -203 -199 -197 -172 -111 -53 -46 -81 -113 -128 -128 -141 -36 0 0 0 0 -72 -46 -29 -41 -68 -2 -12 -30 -15 0 0 0 0 0 0 0 0 0 0 0
-69 -60 -32 -80 -65 -75 -186 -183 -205 -185 -167 -164 -142 -115 -106 -121 -122 -45 -45 -61 -84 -103 -39 -11 -8 -18 -4 -28 -45 -3 -4 -20 0 0 0 0 0 0 0 0 0 0 0
-95 -110 -66 -142 -93 -98 -163 -81 -71 -96 -134 -164 -142 -158 -129 -150 -122 -41 -74 -68 -45 -58 0 -61 -66 -22 -17 -3 -58 0 -41 -22 0 0 0 0 0 0 0 0 0 0 0
0 -207 -223 -169 -153 -148 -135 -81 -81 -95 -130 -118 -132 -123 -104 -130 -120 -101 -63 -84 -6 0 0 -89 0 -65 -52 -34 -95 -157 0 0 0 0 0 0 0 0 0 0 0 0 0
0 0 0 -268 -230 -213 -185 -157 -117 -115 -145 -173 -185 -148 -142 -134 0 -156 -114 -95 -75 0 0 0 0 0 0 0 0 0 0 0 0 0 0 0 0 0 0 0 0 0 0
Wind_Speed
14 17 20 21 19 18 17 16 15 13 14 16 18 19 20 20 20 20 19 19 17 16 18 17 17 18 16 17 15 16 17 17 17 15 14 13 15 16 16 13 11 11 12
17 18 20 20 18 18 17 16 15 13 11 14 19 20 20 20 19 19 18 18 18 18 17 17 16 16 16 15 15 16 14 15 14 14 13 13 12 12 13 14 8 12 12
19 18 19 19 18 17 17 16 15 13 12 13 17 20 21 20 19 18 18 18 18 17 17 16 15 14 13 13 13 14 13 13 13 13 10 8 10 12 12 12 13 12 14
17 17 17 18 18 18 18 16 15 14 12 12 17 20 20 20 18 18 17 17 17 16 16 15 14 11 11 12 12 12 12 12 12 10 8 8 9 12 11 11 10 11 12
17 15 16 18 18 18 17 17 16 14 13 11 13 17 19 20 18 17 16 15 13 14 15 14 12 12 13 13 13 12 12 12 10 9 9 8 7 10 11 10 9 9 11
16 16 17 18 18 17 17 16 17 14 13 12 13 14 17 18 16 16 15 12 11 13 14 13 12 12 11 11 11 11 11 10 7 8 7 8 8 11 11 11 10 9 9
16 15 16 19 19 16 16 16 17 15 14 13 13 14 15 16 15 15 14 13 12 13 12 12 12 11 11 9 9 10 9 8 6 6 6 6 8 10 10 10 10 9 9
16 16 16 17 18 16 16 16 18 16 15 14 12 12 11 14 15 15 14 13 12 12 12 11 10 10 10 9 8 9 8 6 5 6 5 4 6 8 9 9 9 9 9
16 15 13 14 14 15 14 14 17 16 15 12 14 11 14 13 14 14 13 13 12 11 10 10 9 8 8 8 8 6 6 5 4 3 3 3 3 6 7 7 7 8 7
16 15 14 13 13 13 13 13 13 16 15 12 11 10 11 12 13 12 12 9 10 10 9 8 8 8 7 6 5 5 5 4 2 1 0 1 2 3 4 5 5 6 6
11 14 13 13 11 12 12 11 12 14 14 13 11 10 9 7 9 10 6 7 7 8 7 6 6 6 6 6 5 3 1 1 1 1 2 2 3 0 1 2 2 3 3
13 10 13 13 12 12 9 10 11 11 10 10 10 10 7 7 6 6 6 6 6 6 5 4 4 5 3 2 2 2 0 1 1 1 2 4 5 4 3 3 2 2 2
13 8 12 13 11 11 10 6 4 5 6 7 11 8 7 5 4 4 3 3 3 3 2 2 2 2 2 2 2 2 1 2 2 2 3 5 7 7 6 6 6 6 5
13 14 12 12 11 10 7 6 5 5 6 5 8 9 7 4 4 4 3 3 3 3 3 2 2 2 3 3 3 2 2 2 2 2 3 5 7 9 9 8 8 10 8
14 13 13 10 11 12 9 6 6 6 5 7 7 8 6 5 5 5 4 4 3 3 3 3 3 3 3 3 3 4 4 4 4 3 3 5 8 9 11 12 12 11 11
17 13 16 11 8 7 11 13 8 6 7 7 6 7 8 6 5 5 5 5 4 4 3 3 3 3 3 3 4 4 5 4 5 5 4 4 8 9 11 13 14 13 12
8 13 15 14 8 7 5 9 11 8 7 6 7 10 10 8 7 6 4 4 5 4 4 4 4 3 4 4 6 5 4 5 5 5 4 5 4 6 9 12 13 13 14
8 7 7 2 5 4 5 7 6 10 9 8 8 8 10 9 9 7 5 6 5 4 4 4 4 4 4 4 4 4 4 4 6 7 5 4 4 4 5 9 10 12 13
8 5 7 7 8 9 8 9 8 10 7 7 6 7 9 10 10 9 7 6 5 4 5 5 4 4 4 5 5 5 5 5 6 5 7 5 5 5 5 6 8 9 10
14 15 12 10 10 11 9 6 4 5 6 5 5 5 8 9 11 10 7 8 7 5 5 5 7 5 5 5 4 4 5 5 5 5 5 4 5 6 6 7 5 4 6
10 10 13 15 15 11 7 4 6 7 5 4 4 8 8 6 7 9 7 6 6 7 9 9 6 7 4 4 4 2 3 4 6 4 3 3 2 3 5 4 4 3 2
17 14 12 13 13 6 1 3 4 3 4 3 5 6 4 3 4 6 6 4 4 4 7 9 8 4 4 3 2 1 4 5 2 1 1 3 4 3 3 4 4 2 2
13 12 12 8 7 7 6 5 3 2 2 1 1 2 3 4 5 2 2 2 2 2 3 3 3 7 3 2 3 4 3 3 2 2 2 2 2 2 2 2 2 2 1
4 6 8 14 17 7 8 3 7 5 6 5 5 3 4 8 7 9 8 6 6 4 2 2 0 2 2 3 0 2 2 3 5 5 1 1 4 4 4 2 2 2 1
6 6 4 5 4 3 9 15 9 9 6 8 5 5 5 4 8 9 7 11 8 7 8 6 2 3 1 2 2 1 3 1 2 4 5 3 3 1 2 2 2 1 0
2 2 4 4 3 4 5 6 8 8 6 5 4 6 7 6 5 7 7 7 6 5 6 7 7 6 5 4 3 4 3 3 3 3 4 6 6 3 2 2 2 2 2
Wind_Direction
159 157 156 150 148 141 133 132 132 129 138 143 138 136 130 128 125 122 118 119 120 124 115 110 104 95 100 97 98 91 83 80 81 76 65 61 72 67 63 94 77 69 66
151 155 158 149 150 141 137 135 134 122 126 146 143 139 136 134 128 121 123 124 125 122 123 115 106 106 102 103 103 92 83 83 78 68 58 61 57 68 56 39 65 68 81
149 153 156 151 147 139 138 136 138 128 121 142 142 141 137 134 127 127 129 128 127 129 123 116 114 106 103 106 102 91 83 77 78 75 69 77 76 75 73 56 53 55 73
148 154 155 150 145 139 142 141 141 132 121 128 145 142 140 128 125 127 129 129 130 127 120 115 108 105 111 113 105 91 85 84 80 75 76 72 78 74 74 75 71 58 39
150 152 151 151 146 140 145 143 139 135 127 117 131 138 136 125 128 130 131 127 123 121 117 113 107 102 106 110 103 95 93 89 83 82 77 73 72 75 80 78 75 72 54
150 153 151 149 143 141 144 147 138 133 131 123 120 124 125 124 128 130 126 116 116 126 122 111 102 98 106 109 105 98 98 94 88 82 78 76 76 79 79 78 77 75 68
152 153 154 148 140 142 144 143 136 137 134 136 132 131 129 123 128 132 132 124 130 128 120 112 105 102 100 104 109 104 100 96 93 89 82 77 79 81 80 79 78 76 73
152 149 152 147 140 145 144 146 133 138 138 141 141 142 137 138 133 137 135 134 133 131 127 121 113 110 109 107 115 119 115 103 97 89 85 78 73 81 83 81 78 74 72
151 146 151 143 142 140 136 143 138 139 138 142 146 138 143 135 140 139 138 137 134 132 127 122 115 107 102 103 105 109 128 119 110 91 84 83 17 77 79 83 82 80 77
148 145 143 143 146 142 139 139 142 139 139 131 125 117 125 137 147 141 140 132 130 127 124 118 114 107 98 92 97 101 107 116 110 159 125 93 302 85 87 86 84 80 76
149 147 145 146 144 139 140 138 147 141 140 131 126 118 119 142 151 149 129 129 125 129 128 121 110 98 90 76 62 61 113 66 347 244 232 244 268 208 121 102 92 93 94
152 150 153 149 149 144 141 138 145 158 150 143 141 145 144 147 150 152 148 146 145 139 135 133 120 101 109 114 111 102 130 282 286 290 254 259 263 261 217 209 212 206 181
160 154 155 149 148 150 145 144 135 137 142 140 140 147 145 143 150 158 158 164 169 158 173 169 159 163 164 172 159 166 213 262 285 288 283 271 264 263 267 228 230 236 231
166 163 159 153 151 151 142 146 141 144 139 133 149 154 153 153 165 169 177 176 187 192 202 224 225 217 206 207 227 239 226 239 253 265 269 271 273 268 266 266 246 240 230
182 162 167 162 162 155 145 146 152 159 160 157 155 164 162 165 174 176 181 188 205 200 213 230 240 235 232 234 239 258 259 252 258 260 268 249 261 259 258 261 258 247 241
200 164 163 169 159 173 161 158 163 165 170 170 170 177 180 178 182 187 194 203 208 206 212 226 233 236 247 251 255 241 256 255 253 255 262 265 245 254 262 260 259 263 259
187 152 161 153 172 187 195 174 160 167 171 183 183 188 189 191 196 198 210 220 226 210 215 214 225 244 257 251 254 250 242 257 261 255 250 257 259 238 256 267 270 259 261
183 159 114 92 150 209 209 222 173 163 174 195 190 189 195 199 202 206 214 226 220 210 213 216 216 232 244 243 253 250 241 239 253 254 250 254 264 280 277 266 266 263 257
132 141 137 173 200 204 220 208 188 164 172 179 202 196 193 203 205 211 213 227 213 214 215 223 218 227 234 238 247 251 255 239 252 258 261 266 283 279 274 273 257 256 256
164 194 187 185 198 197 203 195 183 168 167 158 186 214 208 205 212 210 210 212 204 207 223 216 222 205 235 243 252 250 264 270 266 260 277 285 289 287 281 273 271 257 262
192 179 183 192 197 200 205 150 172 169 143 122 182 222 236 232 239 240 220 193 181 203 214 214 218 223 228 227 255 275 278 286 272 284 286 281 296 328 325 303 280 265 254
190 177 191 198 214 219 124 67 51 64 76 136 187 181 169 176 220 247 243 252 187 212 231 217 207 211 220 171 262 261 314 310 332 303 311 320 329 343 353 355 345 323 140
185 199 199 191 217 217 109 101 71 83 122 131 213 114 132 150 155 212 205 144 146 206 236 247 257 252 267 72 359 311 322 265 304 308 293 306 354 351 359 356 28 54 81
247 235 166 192 227 226 150 130 207 203 225 236 231 203 187 175 172 180 165 147 131 110 23 188 359 14 50 321 59 79 287 305 293 303 354 322 331 329 336 342 349 82 136
198 225 225 191 199 195 191 200 217 218 217 238 229 200 215 220 203 182 164 149 170 157 157 180 222 259 173 212 197 155 224 226 239 242 283 299 330 295 319 329 320 314 338
91 202 205 192 183 182 184 202 208 199 200 191 196 194 198 197 186 170 172 177 182 177 165 161 164 185 175 188 187 197 211 190 178 198 234 272 292 299 308 310 278 239 215